When you browse on this site, cookies collect data to enhance your experience and personalize the content and advertising you see.
Visit our Privacy Policy to learn more. By continuing to use the site, you agree to this use of cookies and data.
  • In United Kingdom
  • List of Countries
  • For 7 days
  • Water Temperature
  • Satellite Maps
  • Weather Map
  • Weather Widgets
  • user-avatar
    Login

    Hourly Weather Ali Sabieh

    Today, 24 March, Sunday

    Time Temperature Precipitation Wind Pressure Humidity
    00:00 +25°C° 0 mm 5 mps 696 mmHg 81%
    01:00 +25°C° 0 mm 5 mps 696 mmHg 82%
    02:00 +23°C° 0 mm 5 mps 696 mmHg 83%
    03:00 +23°C° 0 mm 5 mps 695 mmHg 84%
    04:00 +23°C° 0 mm 5 mps 695 mmHg 84%
    05:00 +23°C° 0 mm 4 mps 695 mmHg 85%
    06:00 +23°C° 0 mm 4 mps 695 mmHg 85%
    07:00 +23°C° 0 mm 5 mps 696 mmHg 80%
    08:00 +25°C° 0 mm 5 mps 696 mmHg 75%
    09:00 +26°C° 0 mm 6 mps 696 mmHg 71%
    10:00 +27°C° 0 mm 6 mps 696 mmHg 66%
    11:00 +28°C° 0 mm 6 mps 696 mmHg 62%
    12:00 +29°C° 0 mm 6 mps 696 mmHg 58%
    13:00 +30°C° 0 mm 6 mps 695 mmHg 57%
    14:00 +30°C° 0 mm 7 mps 695 mmHg 56%
    15:00 +32°C° 0 mm 7 mps 694 mmHg 55%
    16:00 +30°C° 0 mm 7 mps 694 mmHg 59%
    17:00 +29°C° 0 mm 7 mps 694 mmHg 64%
    18:00 +28°C° 0 mm 6 mps 693 mmHg 69%
    19:00 +27°C° 0 mm 6 mps 694 mmHg 72%
    20:00 +27°C° 0 mm 6 mps 694 mmHg 75%
    21:00 +26°C° 0 mm 5 mps 694 mmHg 77%
    22:00 +26°C° 0 mm 6 mps 695 mmHg 79%
    23:00 +24°C° 0 mm 6 mps 695 mmHg 80%

    Tomorrow, 25 March, Monday

    Time Temperature Precipitation Wind Pressure Humidity
    00:00 +24°C° 0 mm 6 mps 695 mmHg 82%
    01:00 +24°C° 0 mm 6 mps 695 mmHg 82%
    02:00 +25°C° 0 mm 5 mps 694 mmHg 83%
    03:00 +23°C° 0 mm 5 mps 694 mmHg 84%
    04:00 +23°C° 0 mm 5 mps 694 mmHg 84%
    05:00 +23°C° 0 mm 5 mps 694 mmHg 85%
    06:00 +23°C° 0 mm 5 mps 694 mmHg 86%
    07:00 +25°C° 0 mm 5 mps 695 mmHg 82%
    08:00 +24°C° 0 mm 6 mps 695 mmHg 79%
    09:00 +26°C° 0 mm 6 mps 696 mmHg 76%
    10:00 +27°C° 0 mm 6 mps 696 mmHg 70%
    11:00 +28°C° 0 mm 6 mps 696 mmHg 65%
    12:00 +30°C° 0 mm 6 mps 696 mmHg 59%
    13:00 +30°C° 0 mm 7 mps 695 mmHg 58%
    14:00 +32°C° 0 mm 7 mps 695 mmHg 56%
    15:00 +32°C° 0 mm 7 mps 694 mmHg 55%
    16:00 +30°C° 0 mm 7 mps 694 mmHg 61%
    17:00 +29°C° 0 mm 7 mps 693 mmHg 66%
    18:00 +28°C° 0 mm 7 mps 693 mmHg 72%
    19:00 +27°C° 0 mm 7 mps 694 mmHg 74%
    20:00 +27°C° 0 mm 6 mps 694 mmHg 76%
    21:00 +26°C° 0 mm 6 mps 695 mmHg 78%
    22:00 +26°C° 0 mm 6 mps 695 mmHg 79%
    23:00 +26°C° 0 mm 6 mps 695 mmHg 80%

    Day after tomorrow, 26 March, Tuesday

    Time Temperature Precipitation Wind Pressure Humidity
    00:00 +24°C° 0 mm 6 mps 695 mmHg 82%
    01:00 +25°C° 0 mm 5 mps 695 mmHg 82%
    02:00 +25°C° 0 mm 5 mps 695 mmHg 82%
    03:00 +23°C° 0 mm 4 mps 694 mmHg 82%
    04:00 +23°C° 0 mm 4 mps 695 mmHg 83%
    05:00 +23°C° 0 mm 4 mps 695 mmHg 84%
    06:00 +23°C° 0 mm 4 mps 695 mmHg 86%
    07:00 +25°C° 0 mm 5 mps 696 mmHg 82%
    08:00 +25°C° 0 mm 5 mps 696 mmHg 78%
    09:00 +26°C° 0 mm 6 mps 697 mmHg 74%
    10:00 +28°C° 0 mm 6 mps 697 mmHg 68%
    11:00 +29°C° 0 mm 6 mps 697 mmHg 62%
    12:00 +30°C° 0 mm 5 mps 697 mmHg 56%
    13:00 +32°C° 0 mm 6 mps 697 mmHg 56%
    14:00 +32°C° 0 mm 6 mps 696 mmHg 55%
    15:00 +33°C° 0 mm 6 mps 695 mmHg 55%
    16:00 +32°C° 0 mm 6 mps 695 mmHg 60%
    17:00 +29°C° 0 mm 6 mps 695 mmHg 65%
    18:00 +28°C° 0 mm 5 mps 695 mmHg 71%
    19:00 +28°C° 0 mm 5 mps 696 mmHg 73%
    20:00 +27°C° 0 mm 5 mps 697 mmHg 76%
    21:00 +27°C° 0 mm 4 mps 698 mmHg 79%
    22:00 +27°C° 0 mm 4 mps 698 mmHg 80%
    23:00 +26°C° 0 mm 4 mps 698 mmHg 82%

    27 March, Wednesday

    Time Temperature Precipitation Wind Pressure Humidity
    00:00 +26°C° 0 mm 4 mps 698 mmHg 83%
    01:00 +26°C° 0 mm 4 mps 697 mmHg 83%
    02:00 +25°C° 0 mm 4 mps 697 mmHg 84%
    03:00 +25°C° 0 mm 4 mps 696 mmHg 84%
    04:00 +25°C° 0 mm 4 mps 697 mmHg 84%
    05:00 +25°C° 0 mm 4 mps 697 mmHg 85%
    06:00 +25°C° 0 mm 4 mps 698 mmHg 85%
    07:00 +25°C° 0 mm 4 mps 699 mmHg 80%
    08:00 +26°C° 0 mm 5 mps 699 mmHg 75%
    09:00 +27°C° 0 mm 6 mps 700 mmHg 69%
    10:00 +28°C° 0 mm 6 mps 700 mmHg 66%
    11:00 +29°C° 0 mm 6 mps 700 mmHg 62%
    12:00 +30°C° 0 mm 6 mps 700 mmHg 58%
    13:00 +32°C° 0 mm 6 mps 699 mmHg 55%
    14:00 +32°C° 0 mm 6 mps 698 mmHg 53%
    15:00 +33°C° 0 mm 6 mps 698 mmHg 50%
    16:00 +32°C° 0.1 mm 5 mps 698 mmHg 52%
    17:00 +30°C° 0.1 mm 5 mps 698 mmHg 54%
    18:00 +30°C° 0.1 mm 5 mps 698 mmHg 56%
    19:00 +29°C° 0.2 mm 5 mps 698 mmHg 59%
    20:00 +28°C° 0.2 mm 4 mps 699 mmHg 61%
    21:00 +28°C° 0.2 mm 4 mps 699 mmHg 64%
    22:00 +27°C° 0 mm 4 mps 699 mmHg 67%
    23:00 +27°C° 0 mm 3 mps 699 mmHg 70%

    28 March, Thursday

    Time Temperature Precipitation Wind Pressure Humidity
    00:00 +26°C° 0 mm 3 mps 699 mmHg 73%
    01:00 +26°C° 0 mm 3 mps 698 mmHg 76%
    02:00 +25°C° 0 mm 3 mps 698 mmHg 79%
    03:00 +25°C° 0 mm 3 mps 697 mmHg 82%
    04:00 +25°C° 0 mm 3 mps 698 mmHg 84%
    05:00 +24°C° 0 mm 3 mps 698 mmHg 85%
    06:00 +24°C° 0 mm 3 mps 699 mmHg 86%
    07:00 +25°C° 0 mm 4 mps 699 mmHg 80%
    08:00 +26°C° 0 mm 4 mps 700 mmHg 75%
    09:00 +27°C° 0 mm 5 mps 701 mmHg 69%
    10:00 +28°C° 0 mm 5 mps 700 mmHg 65%
    11:00 +29°C° 0 mm 5 mps 700 mmHg 61%
    12:00 +30°C° 0 mm 6 mps 699 mmHg 57%
    13:00 +32°C° 0 mm 6 mps 699 mmHg 54%
    14:00 +32°C° 0 mm 6 mps 698 mmHg 51%
    15:00 +33°C° 0 mm 6 mps 697 mmHg 48%
    16:00 +32°C° 0 mm 6 mps 697 mmHg 51%
    17:00 +30°C° 0 mm 6 mps 698 mmHg 54%
    18:00 +30°C° 0 mm 6 mps 698 mmHg 57%
    19:00 +29°C° 0 mm 5 mps 698 mmHg 59%
    20:00 +28°C° 0 mm 5 mps 698 mmHg 62%
    21:00 +28°C° 0 mm 4 mps 698 mmHg 64%
    22:00 +27°C° 0 mm 4 mps 698 mmHg 67%
    23:00 +27°C° 0 mm 3 mps 698 mmHg 69%

    29 March, Friday

    Time Temperature Precipitation Wind Pressure Humidity
    00:00 +26°C° 0 mm 3 mps 697 mmHg 71%
    01:00 +26°C° 0 mm 3 mps 697 mmHg 74%
    02:00 +25°C° 0 mm 3 mps 697 mmHg 76%
    03:00 +25°C° 0 mm 3 mps 696 mmHg 78%
    04:00 +25°C° 0 mm 3 mps 697 mmHg 81%
    05:00 +24°C° 0 mm 3 mps 697 mmHg 83%
    06:00 +24°C° 0 mm 3 mps 697 mmHg 85%
    07:00 +25°C° 0 mm 4 mps 698 mmHg 81%
    08:00 +25°C° 0 mm 4 mps 699 mmHg 77%
    09:00 +26°C° 0 mm 4 mps 699 mmHg 74%
    10:00 +28°C° 0 mm 5 mps 699 mmHg 66%
    11:00 +29°C° 0 mm 5 mps 698 mmHg 59%
    12:00 +32°C° 0 mm 5 mps 698 mmHg 52%
    13:00 +32°C° 0 mm 6 mps 697 mmHg 49%
    14:00 +33°C° 0 mm 6 mps 697 mmHg 47%
    15:00 +34°C° 0 mm 6 mps 696 mmHg 44%
    16:00 +33°C° 0 mm 6 mps 696 mmHg 48%
    17:00 +32°C° 0 mm 6 mps 696 mmHg 51%
    18:00 +30°C° 0 mm 6 mps 696 mmHg 54%
    19:00 +29°C° 0 mm 6 mps 696 mmHg 59%
    20:00 +28°C° 0 mm 5 mps 696 mmHg 63%
    21:00 +27°C° 0 mm 5 mps 697 mmHg 67%
    22:00 +27°C° 0 mm 4 mps 696 mmHg 69%
    23:00 +26°C° 0 mm 4 mps 696 mmHg 71%
    Show more